2023/03/03 00:00:00,85.1,-2.9
2023/03/03 00:10:00,85.1,-2.9
2023/03/03 00:20:00,85.1,-2.8
2023/03/03 00:30:00,85.1,-3.1
2023/03/03 00:40:00,85.1,-3.1
2023/03/03 00:50:00,85.0,-3.0
2023/03/03 01:00:00,85.0,-3.0
2023/03/03 01:10:00,85.0,-2.9
2023/03/03 01:20:00,85.0,-3.1
2023/03/03 01:30:00,85.0,-3.0
2023/03/03 01:40:00,84.9,-3.2
2023/03/03 01:50:00,84.9,-3.2
2023/03/03 02:00:00,84.9,-3.0
2023/03/03 02:10:00,84.9,-3.0
2023/03/03 02:20:00,84.8,-3.0
2023/03/03 02:30:00,84.8,-3.0
2023/03/03 02:40:00,84.8,-3.1
2023/03/03 02:50:00,84.7,-2.8
2023/03/03 03:00:00,84.7,-3.2
2023/03/03 03:10:00,84.6,-3.0
2023/03/03 03:20:00,84.6,-3.3
2023/03/03 03:30:00,84.6,-2.8
2023/03/03 03:40:00,84.6,-2.3
2023/03/03 03:50:00,84.6,-3.2
2023/03/03 04:00:00,84.5,-3.1
2023/03/03 04:10:00,84.4,-3.4
2023/03/03 04:20:00,84.4,-3.4
2023/03/03 04:30:00,84.5,-3.6
2023/03/03 04:40:00,84.4,-3.8
2023/03/03 04:50:00,84.4,-3.9
2023/03/03 05:00:00,84.4,-4.0
2023/03/03 05:10:00,84.4,-4.4
2023/03/03 05:20:00,84.3,-4.8
2023/03/03 05:30:00,84.3,-4.7
2023/03/03 05:40:00,84.3,-4.6
2023/03/03 05:50:00,84.3,-4.6
2023/03/03 06:00:00,84.3,-4.7
2023/03/03 06:10:00,84.3,-4.6
2023/03/03 06:20:00,84.2,-4.8
2023/03/03 06:30:00,84.2,-4.7
2023/03/03 06:40:00,84.2,-4.7
2023/03/03 06:50:00,84.2,-4.8
2023/03/03 07:00:00,84.2,-4.6
2023/03/03 07:10:00,84.2,-4.5
2023/03/03 07:20:00,84.2,-4.6
2023/03/03 07:30:00,84.1,-4.5
2023/03/03 07:40:00,84.1,-4.5
2023/03/03 07:50:00,84.1,-4.4
2023/03/03 08:00:00,84.1,-4.3
2023/03/03 08:10:00,84.1,-4.2
2023/03/03 08:20:00,84.1,-3.9
2023/03/03 08:30:00,84.0,-3.3
2023/03/03 08:40:00,84.0,-2.9
2023/03/03 08:50:00,83.9,-1.4
2023/03/03 09:00:00,83.8, 0.4
2023/03/03 09:10:00,83.9, 3.2
2023/03/03 09:20:00,83.8, 5.9
2023/03/03 09:30:00,83.6, 7.0
2023/03/03 09:40:00,83.4, 6.4
2023/03/03 09:50:00,83.5, 7.0
2023/03/03 10:00:00,83.6, 7.1
2023/03/03 10:10:00,83.7, 7.0
2023/03/03 10:20:00,83.6, 6.7
2023/03/03 10:30:00,83.4, 7.0
2023/03/03 10:40:00,82.8, 7.0
2023/03/03 10:50:00,82.5, 7.5
2023/03/03 11:00:00,82.3, 8.3
2023/03/03 11:10:00,82.1, 8.3
2023/03/03 11:20:00,81.9, 7.4
2023/03/03 11:30:00,81.7, 6.4
2023/03/03 11:40:00,81.4, 8.8
2023/03/03 11:50:00,81.5, 9.6
2023/03/03 12:00:00,81.4, 9.6
2023/03/03 12:10:00,81.4,10.0
2023/03/03 12:20:00,81.3,10.8
2023/03/03 12:30:00,81.0,11.6
2023/03/03 12:40:00,80.8,12.8
2023/03/03 12:50:00,80.7,13.0
2023/03/03 13:00:00,80.4,13.0
2023/03/03 13:10:00,80.2,13.8
2023/03/03 13:20:00,79.5,14.1
2023/03/03 13:30:00,78.7,14.6
2023/03/03 13:40:00,78.2,14.7
2023/03/03 13:50:00,77.8,14.4
2023/03/03 14:00:00,77.4,14.8
2023/03/03 14:10:00,77.3,15.8
2023/03/03 14:20:00,76.6,14.6
2023/03/03 14:30:00,76.7,15.2
2023/03/03 14:40:00,76.6,14.8
2023/03/03 14:50:00,76.4,15.2
2023/03/03 15:00:00,76.1,16.2
2023/03/03 15:10:00,75.8,16.5
2023/03/03 15:20:00,75.0,17.1
2023/03/03 15:30:00,74.7,16.9
2023/03/03 15:40:00,74.6,17.0
2023/03/03 15:50:00,74.7,17.1
2023/03/03 16:00:00,74.5,16.9
2023/03/03 16:10:00,74.6,15.9
2023/03/03 16:20:00,74.4,15.2
2023/03/03 16:30:00,74.1,15.8
2023/03/03 16:40:00,74.0,13.7
2023/03/03 16:50:00,74.3,10.3
2023/03/03 17:00:00,74.3, 9.6
2023/03/03 17:10:00,74.4, 9.3
2023/03/03 17:20:00,74.3, 7.1
2023/03/03 17:30:00,74.3, 5.9
2023/03/03 17:40:00,74.3, 4.3
2023/03/03 17:50:00,74.3, 3.0
2023/03/03 18:00:00,74.1, 2.3
2023/03/03 18:10:00,74.2, 1.6
2023/03/03 18:20:00,74.2, 1.1
2023/03/03 18:30:00,74.3, 0.8
2023/03/03 18:40:00,74.2, 0.7
2023/03/03 18:50:00,74.2, 0.4
2023/03/03 19:00:00,74.2, 0.4
2023/03/03 19:10:00,74.1, 0.1
2023/03/03 19:20:00,74.2, 0.3
2023/03/03 19:30:00,74.2,-0.1
2023/03/03 19:40:00,74.2,-0.1
2023/03/03 19:50:00,74.2,-0.3
2023/03/03 20:00:00,74.2,-0.5
2023/03/03 20:10:00,74.2,-0.4
2023/03/03 20:20:00,74.2,-0.4
2023/03/03 20:30:00,74.2,-0.5
2023/03/03 20:40:00,74.2,-0.4
2023/03/03 20:50:00,74.2,-0.5
2023/03/03 21:00:00,74.1,-0.7
2023/03/03 21:10:00,74.1,-0.6
2023/03/03 21:20:00,74.2,-0.4
2023/03/03 21:30:00,74.2,-0.5
2023/03/03 21:40:00,74.1,-0.5
2023/03/03 21:50:00,74.1,-0.5
2023/03/03 22:00:00,74.1,-0.4
2023/03/03 22:10:00,74.1,-0.4
2023/03/03 22:20:00,74.1, 0.0
2023/03/03 22:30:00,74.0, 0.1
2023/03/03 22:40:00,74.1, 0.3
2023/03/03 22:50:00,74.1, 0.3
2023/03/03 23:00:00,74.1, 0.2
2023/03/03 23:10:00,74.0, 0.0
2023/03/03 23:20:00,74.1, 0.0
2023/03/03 23:30:00,74.1,-0.2
2023/03/03 23:40:00,74.1,-0.4
2023/03/03 23:50:00,74.0,-0.3
